Content
SEND FEEDBACK

Daily
Averages
Monthly
Summary
United States of America

ST. LOUIS - SAINT LOUIS UNIVERSITY, MISSOURI


Home > North America > United States > Missouri
Elevation: 580 feet     Latitude: 38 38N     Longitude: 090 14W

WEATHER
 
SELECT A DAY
Number of Records: 186,071;   Date Range: 1/1/95 - 7/27/14
 
SHARE

PRINT THIS DATA

[ ← Previous Day ]
WEATHER ALMANAC - JANUARY 23, 2013
[ Next Day → ]
[ °C ]   °F
Weather ElementAverageHighLow
Temperature26.9 °F42.1 °F (3:53 pm)10 °F (1:53 am)
Dewpoint15.3 °F21.9 °F (7:53 pm)7 °F (1:53 am)
Humidity63.7 %87 % (1:53 am)41 % (3:53 pm)
Barometer30.28 in30.39 in (1:53 am)30.16 in (3:53 pm)
Wind Speed5.1 mph16.1 mph (9:53 pm)
Weather ElementAverage
Visibility9.7 mi
Wind DirectionSSW (196.5 °)

Weather ElementTotal
Precipitation---
Heating Degree Days39 (Base 65)
Averaged from 23 records on January 23, 2013
WEATHER CONDITIONS BREAKOUT
WIND DIRECTION BREAKOUT
WEATHER BY HOUR - JANUARY 23, 2013
[ °C ]   °F
Local TimeTemperatureDewpointHumidityBarometerVisibilityWind DirectionWind SpeedGust SpeedPrecipitationEventsConditions
1:53 AM10.0 °F7.0 °F87 %30.39 in8.0 miCalmClear
2:53 AM12.0 °F8.1 °F84 %30.39 in8.0 miCalmClear
3:53 AM12.9 °F9.0 °F84 %30.35 in9.0 miSSE (160°)4.6 mphClear
4:53 AM12.9 °F9.0 °F84 %30.35 in10.0 miSSE (150°)3.5 mphClear
5:53 AM12.9 °F8.1 °F81 %30.35 in10.0 miCalmClear
6:53 AM12.0 °F8.1 °F84 %30.34 in9.0 miCalmClear
7:53 AM14.0 °F10.0 °F84 %30.34 in10.0 miCalmClear
8:53 AM21.9 °F12.9 °F68 %30.32 in10.0 miSouth (170°)4.6 mphClear
9:53 AM26.1 °F12.9 °F58 %30.31 in10.0 miSouth (190°)8.1 mphClear
10:53 AM28.9 °F15.1 °F56 %30.29 in10.0 miWSW (240°)5.8 mphClear
11:53 AM32.0 °F17.1 °F54 %30.25 in10.0 miSW (220°)5.8 mphClear
12:53 PM35.1 °F18.0 °F50 %30.20 in10.0 miCalmClear
1:53 PM37.9 °F19.0 °F47 %30.18 in10.0 miSSW (210°)3.5 mphClear
2:53 PM41.0 °F19.9 °F43 %30.18 in10.0 miWNW (290°)5.8 mphClear
3:53 PM42.1 °F19.9 °F41 %30.16 in10.0 miWest (270°)4.6 mphClear
4:53 PM39.9 °F19.9 °F45 %30.17 in10.0 miWNW (290°)4.6 mphClear
5:53 PM35.1 °F21.0 °F57 %30.18 in10.0 miNW (310°)3.5 mphClear
6:53 PM33.1 °F21.0 °F61 %30.21 in10.0 miNorth (350°)4.6 mphClear
7:53 PM30.9 °F21.9 °F69 %30.24 in10.0 miNW (320°)6.9 mphClear
8:53 PM35.1 °F21.9 °F59 %30.26 in10.0 miNW (320°)12.7 mphClear
9:53 PM34.0 °F18.0 °F52 %30.30 in10.0 miNNW (340°)16.1 mphClear
10:53 PM30.9 °F16.0 °F54 %30.33 in10.0 miNNW (340°)12.7 mphClear
11:53 PM28.0 °F17.1 °F63 %30.36 in10.0 miNorth (350°)10.4 mphClear
Hourly data recorded from KCPS, located miles away from St. Louis - Saint Louis University, Missouri







STORIES FROM OUR PARTNERS